sat.trackr.live / text

‹ back to catalog

SNAPPY

NORAD 69014 · 2026-100AL

PAYLOAD ACTIVE UNKNOWN

§ Identity

Operator
Country
US
Launch date
2026-05-03
Launch site
AFWTR
Launch vehicle
Mass (kg)
RCS (m²)

External: N2YO · Heavens-Above · Gunter

§ Orbital elements

Epoch: 2026-09-18T04:41:59.508096Z

Period
94.63 min
Inclination
97.3927°
Eccentricity
0.0007809
Mean motion
15.21778110 rev/d
Perigee alt
495.1 km
Apogee alt
505.8 km
Semi-major
6,878.6 km
B*
1.3571e-4
RAAN
157.5226°
Arg perigee
90.7611°
Mean anomaly
269.4520°
Rev number
2,095

§ Raw data

SNAPPY1 69014U 26100AL  26261.19582764  .00003011  00000+0  13571-3 0  99922 69014  97.3927 157.5226 0007809  90.7611 269.4520 15.21778110 20952

JSON: /api/v1/satellites/69014 · /tle

For live sub-satellite position, see the globe view (requires WebGL).

§ Visibility from observer

Set your observer location to see the next 7 days of passes ≥ 10°. The values pass through the URL so the page stays shareable.

No JS? Fill the form by hand. The geolocation button needs JavaScript.